Time,TemperatureF,DewpointF,PressureIn,WindDirection,WindDirectionDegrees,WindSpeedMPH,WindSpeedGustMPH,Humidity,HourlyPrecipIn,Conditions,Clouds,dailyrainin,SoftwareType,DateUTC
2013-12-02 00:02:00,51.3,49.3,30.28,ENE,74,2.0,5.0,93,0.00,,,0.00,meteohub,2013-12-02 08:02:00,
2013-12-02 00:07:00,51.3,49.3,30.27,ENE,73,2.0,4.0,93,0.00,,,0.00,meteohub,2013-12-02 08:07:00,
2013-12-02 00:12:00,51.3,49.3,30.27,ENE,73,2.0,4.0,93,0.00,,,0.00,meteohub,2013-12-02 08:12:00,
2013-12-02 00:17:00,51.1,49.5,30.27,ENE,75,1.0,4.0,94,0.00,,,0.00,meteohub,2013-12-02 08:17:00,
2013-12-02 00:22:00,50.9,49.3,30.27,ENE,75,1.0,4.0,94,0.00,,,0.00,meteohub,2013-12-02 08:22:00,
2013-12-02 00:27:00,50.5,48.6,30.27,ENE,73,2.0,4.0,93,0.00,,,0.00,meteohub,2013-12-02 08:27:00,
2013-12-02 00:32:00,50.5,48.9,30.27,ENE,74,1.0,4.0,94,0.00,,,0.00,meteohub,2013-12-02 08:32:00,
2013-12-02 00:37:00,50.4,48.7,30.27,ENE,74,2.0,3.0,94,0.00,,,0.00,meteohub,2013-12-02 08:37:00,
2013-12-02 00:42:00,50.4,48.7,30.26,ENE,73,1.0,4.0,94,0.00,,,0.00,meteohub,2013-12-02 08:42:00,
2013-12-02 00:47:00,50.4,48.7,30.27,ENE,74,0.0,4.0,94,0.00,,,0.00,meteohub,2013-12-02 08:47:00,
2013-12-02 00:52:00,50.0,48.4,30.27,ENE,73,0.0,4.0,94,0.00,,,0.00,meteohub,2013-12-02 08:52:00,
2013-12-02 00:57:00,49.8,48.2,30.27,ENE,73,0.0,3.0,94,0.00,,,0.00,meteohub,2013-12-02 08:57:00,
2013-12-02 01:02:00,49.6,48.0,30.26,ENE,75,2.0,2.0,94,0.00,,,0.00,meteohub,2013-12-02 09:02:00,
2013-12-02 01:07:00,49.5,47.8,30.26,ENE,75,2.0,3.0,94,0.00,,,0.00,meteohub,2013-12-02 09:07:00,
2013-12-02 01:12:00,49.5,47.8,30.26,ENE,75,2.0,3.0,94,0.00,,,0.00,meteohub,2013-12-02 09:12:00,
2013-12-02 01:18:00,49.5,48.0,30.26,ENE,74,3.0,3.0,95,0.00,,,0.00,meteohub,2013-12-02 09:18:00,
2013-12-02 01:23:00,49.3,47.7,30.26,ENE,75,2.0,5.0,94,0.00,,,0.00,meteohub,2013-12-02 09:23:00,
2013-12-02 01:28:00,48.9,47.3,30.26,ENE,75,4.0,5.0,94,0.00,,,0.00,meteohub,2013-12-02 09:28:00,
2013-12-02 01:33:00,49.3,47.8,30.27,ENE,74,1.0,5.0,95,0.00,,,0.00,meteohub,2013-12-02 09:33:00,
2013-12-02 01:38:00,49.5,48.0,30.27,ENE,74,2.0,5.0,95,0.00,,,0.00,meteohub,2013-12-02 09:38:00,
2013-12-02 01:43:00,49.5,48.0,30.27,ENE,75,0.0,5.0,95,0.00,,,0.00,meteohub,2013-12-02 09:43:00,
2013-12-02 01:48:00,49.1,47.7,30.27,ENE,75,2.0,4.0,95,0.00,,,0.00,meteohub,2013-12-02 09:48:00,
2013-12-02 01:53:00,48.9,47.5,30.27,ENE,73,3.0,3.0,95,0.00,,,0.00,meteohub,2013-12-02 09:53:00,
2013-12-02 01:58:00,48.9,47.5,30.26,ENE,74,4.0,4.0,95,0.00,,,0.00,meteohub,2013-12-02 09:58:00,
2013-12-02 02:03:00,48.7,47.1,30.26,ENE,73,3.0,5.0,94,0.00,,,0.00,meteohub,2013-12-02 10:03:00,
2013-12-02 02:08:00,48.6,47.1,30.26,East,98,5.0,5.0,95,0.00,,,0.00,meteohub,2013-12-02 10:08:00,
2013-12-02 02:13:00,48.9,47.5,30.26,ESE,108,4.0,7.0,95,0.00,,,0.00,meteohub,2013-12-02 10:13:00,
2013-12-02 02:18:00,48.9,47.5,30.25,ESE,112,4.0,7.0,95,0.00,,,0.00,meteohub,2013-12-02 10:18:00,
2013-12-02 02:23:00,48.9,47.5,30.25,ESE,110,4.0,7.0,95,0.00,,,0.00,meteohub,2013-12-02 10:23:00,
2013-12-02 02:28:00,49.3,48.2,30.25,ESE,116,4.0,7.0,96,0.00,,,0.00,meteohub,2013-12-02 10:28:00,
2013-12-02 02:33:00,49.5,48.0,30.25,ESE,119,3.0,7.0,95,0.00,,,0.00,meteohub,2013-12-02 10:33:00,
2013-12-02 02:38:00,49.5,48.0,30.25,ESE,117,1.0,7.0,95,0.00,,,0.00,meteohub,2013-12-02 10:38:00,
2013-12-02 02:43:00,49.6,48.2,30.24,ESE,117,2.0,7.0,95,0.00,,,0.00,meteohub,2013-12-02 10:43:00,
2013-12-02 02:48:00,49.5,48.4,30.25,ESE,115,2.0,7.0,96,0.00,,,0.00,meteohub,2013-12-02 10:48:00,
2013-12-02 02:53:00,49.6,48.2,30.24,ESE,118,1.0,3.0,95,0.00,,,0.00,meteohub,2013-12-02 10:53:00,
2013-12-02 02:58:00,49.5,48.0,30.24,ESE,115,0.0,3.0,95,0.00,,,0.00,meteohub,2013-12-02 10:58:00,
2013-12-02 03:03:00,49.5,48.0,30.24,ESE,119,0.0,3.0,95,0.00,,,0.00,meteohub,2013-12-02 11:03:00,
2013-12-02 03:08:00,49.3,47.8,30.23,ESE,116,0.0,3.0,95,0.00,,,0.00,meteohub,2013-12-02 11:08:00,
2013-12-02 03:13:00,48.9,47.5,30.22,ESE,116,2.0,2.0,95,0.00,,,0.00,meteohub,2013-12-02 11:13:00,
2013-12-02 03:18:00,48.6,47.1,30.22,ESE,119,2.0,3.0,95,0.00,,,0.00,meteohub,2013-12-02 11:18:00,
2013-12-02 03:23:00,48.6,47.5,30.22,ESE,119,2.0,3.0,96,0.00,,,0.00,meteohub,2013-12-02 11:23:00,
2013-12-02 03:28:00,48.6,47.5,30.22,ESE,119,4.0,4.0,96,0.00,,,0.00,meteohub,2013-12-02 11:28:00,
2013-12-02 03:33:00,48.6,47.5,30.22,ESE,117,2.0,4.0,96,0.00,,,0.00,meteohub,2013-12-02 11:33:00,
2013-12-02 03:38:00,48.4,47.3,30.22,ESE,116,0.0,4.0,96,0.00,,,0.00,meteohub,2013-12-02 11:38:00,
2013-12-02 03:43:00,48.4,47.3,30.22,ESE,117,0.0,4.0,96,0.00,,,0.00,meteohub,2013-12-02 11:43:00,
2013-12-02 03:48:00,48.0,46.9,30.22,ESE,116,1.0,4.0,96,0.00,,,0.00,meteohub,2013-12-02 11:48:00,
2013-12-02 03:53:00,47.8,46.8,30.22,ESE,119,2.0,3.0,96,0.00,,,0.00,meteohub,2013-12-02 11:53:00,
2013-12-02 03:58:00,47.8,46.8,30.22,ESE,117,0.0,4.0,96,0.00,,,0.00,meteohub,2013-12-02 11:58:00,
2013-12-02 04:03:00,47.7,46.6,30.22,ESE,117,1.0,4.0,96,0.00,,,0.00,meteohub,2013-12-02 12:03:00,
2013-12-02 04:08:00,47.8,46.8,30.22,North,359,2.0,4.0,96,0.00,,,0.00,meteohub,2013-12-02 12:08:00,
2013-12-02 04:13:00,47.8,46.8,30.22,North,359,0.0,3.0,96,0.00,,,0.00,meteohub,2013-12-02 12:13:00,
2013-12-02 04:19:00,48.0,46.9,30.21,ESE,116,0.0,2.0,96,0.00,,,0.00,meteohub,2013-12-02 12:19:00,
2013-12-02 04:24:00,48.0,46.9,30.22,ESE,117,0.0,2.0,96,0.00,,,0.00,meteohub,2013-12-02 12:24:00,
2013-12-02 04:29:00,48.2,47.3,30.21,ESE,116,0.0,2.0,97,0.00,,,0.00,meteohub,2013-12-02 12:29:00,
2013-12-02 04:34:00,48.4,47.5,30.21,ESE,118,0.0,2.0,97,0.00,,,0.00,meteohub,2013-12-02 12:34:00,
2013-12-02 04:39:00,48.6,47.7,30.21,ESE,117,0.0,1.0,97,0.00,,,0.00,meteohub,2013-12-02 12:39:00,
2013-12-02 04:44:00,48.6,47.7,30.21,ESE,115,0.0,1.0,97,0.00,,,0.00,meteohub,2013-12-02 12:44:00,
2013-12-02 04:49:00,48.6,47.5,30.21,ESE,118,0.0,0.0,96,0.00,,,0.00,meteohub,2013-12-02 12:49:00,
2013-12-02 04:54:00,48.6,47.7,30.21,ESE,120,0.0,0.0,97,0.00,,,0.00,meteohub,2013-12-02 12:54:00,
2013-12-02 04:59:00,48.7,47.8,30.21,ESE,117,0.0,0.0,97,0.00,,,0.00,meteohub,2013-12-02 12:59:00,
2013-12-02 05:04:00,48.9,48.0,30.20,ESE,120,3.0,3.0,97,0.00,,,0.00,meteohub,2013-12-02 13:04:00,
2013-12-02 05:09:00,48.9,48.0,30.20,ESE,116,1.0,3.0,97,0.00,,,0.00,meteohub,2013-12-02 13:09:00,
2013-12-02 05:14:00,48.9,48.0,30.20,ESE,117,1.0,4.0,97,0.00,,,0.00,meteohub,2013-12-02 13:14:00,
2013-12-02 05:19:00,48.9,48.0,30.20,ESE,116,1.0,4.0,97,0.00,,,0.00,meteohub,2013-12-02 13:19:00,
2013-12-02 05:24:00,48.7,47.8,30.19,ESE,117,2.0,4.0,97,0.00,,,0.00,meteohub,2013-12-02 13:24:00,
2013-12-02 05:29:00,48.9,48.0,30.19,ESE,118,3.0,4.0,97,0.00,,,0.00,meteohub,2013-12-02 13:29:00,
2013-12-02 05:34:00,48.9,48.0,30.19,ESE,123,4.0,4.0,97,0.00,,,0.00,meteohub,2013-12-02 13:34:00,
2013-12-02 05:39:00,48.7,47.8,30.19,ESE,122,3.0,5.0,97,0.00,,,0.00,meteohub,2013-12-02 13:39:00,
2013-12-02 05:44:00,48.7,47.8,30.19,SE,124,3.0,5.0,97,0.00,,,0.00,meteohub,2013-12-02 13:44:00,
2013-12-02 05:49:00,48.7,47.8,30.19,ESE,122,2.0,5.0,97,0.00,,,0.00,meteohub,2013-12-02 13:49:00,
2013-12-02 05:54:00,48.7,47.8,30.19,SE,124,2.0,5.0,97,0.00,,,0.00,meteohub,2013-12-02 13:54:00,
2013-12-02 05:59:00,48.7,47.8,30.19,SE,124,4.0,5.0,97,0.00,,,0.00,meteohub,2013-12-02 13:59:00,
2013-12-02 06:04:00,48.7,47.8,30.19,ESE,123,3.0,6.0,97,0.00,,,0.00,meteohub,2013-12-02 14:04:00,
2013-12-02 06:09:00,48.9,48.0,30.19,ESE,121,2.0,6.0,97,0.00,,,0.00,meteohub,2013-12-02 14:09:00,
2013-12-02 06:14:00,48.9,48.0,30.19,SE,124,3.0,6.0,97,0.00,,,0.00,meteohub,2013-12-02 14:14:00,
2013-12-02 06:19:00,49.3,48.4,30.19,SE,124,5.0,5.0,97,0.00,,,0.00,meteohub,2013-12-02 14:19:00,
2013-12-02 06:24:00,49.1,48.2,30.20,SE,145,4.0,5.0,97,0.00,,,0.00,meteohub,2013-12-02 14:24:00,
2013-12-02 06:29:00,48.7,47.8,30.20,SSE,149,3.0,7.0,97,0.00,,,0.00,meteohub,2013-12-02 14:29:00,
2013-12-02 06:34:00,48.7,47.8,30.21,SSE,150,4.0,7.0,97,0.00,,,0.00,meteohub,2013-12-02 14:34:00,
2013-12-02 06:39:00,48.9,48.0,30.21,North,359,2.0,7.0,97,0.00,,,0.00,meteohub,2013-12-02 14:39:00,
2013-12-02 06:44:00,49.1,48.2,30.21,SSE,148,3.0,7.0,97,0.00,,,0.00,meteohub,2013-12-02 14:44:00,
2013-12-02 06:49:00,49.1,48.2,30.22,SSE,156,2.0,6.0,97,0.00,,,0.00,meteohub,2013-12-02 14:49:00,
2013-12-02 06:54:00,49.3,48.4,30.22,SSE,156,3.0,6.0,97,0.00,,,0.00,meteohub,2013-12-02 14:54:00,
2013-12-02 07:00:00,49.5,48.6,30.22,SSE,159,1.0,6.0,97,0.00,,,0.00,meteohub,2013-12-02 15:00:00,
2013-12-02 07:05:00,49.5,48.6,30.22,SSE,156,2.0,6.0,97,0.00,,,0.00,meteohub,2013-12-02 15:05:00,
2013-12-02 07:10:00,49.5,48.6,30.22,SSE,156,2.0,5.0,97,0.00,,,0.00,meteohub,2013-12-02 15:10:00,
2013-12-02 07:15:00,49.3,48.4,30.22,SSE,158,3.0,5.0,97,0.01,,,0.01,meteohub,2013-12-02 15:15:00,
2013-12-02 07:20:00,49.3,48.4,30.22,SSE,156,3.0,7.0,97,0.01,,,0.01,meteohub,2013-12-02 15:20:00,
2013-12-02 07:25:00,49.3,48.4,30.22,SSE,160,3.0,7.0,97,0.01,,,0.01,meteohub,2013-12-02 15:25:00,
2013-12-02 07:30:00,49.3,48.4,30.22,SSE,156,5.0,7.0,97,0.01,,,0.01,meteohub,2013-12-02 15:30:00,
2013-12-02 07:35:00,49.5,48.6,30.22,SSE,166,6.0,6.0,97,0.01,,,0.01,meteohub,2013-12-02 15:35:00,
2013-12-02 07:40:00,49.5,48.6,30.22,South,185,4.0,7.0,97,0.01,,,0.01,meteohub,2013-12-02 15:40:00,
2013-12-02 07:45:00,49.1,48.2,30.21,SSE,167,6.0,7.0,97,0.01,,,0.01,meteohub,2013-12-02 15:45:00,
2013-12-02 07:50:00,48.9,48.0,30.21,North,359,5.0,10.0,97,0.01,,,0.01,meteohub,2013-12-02 15:50:00,
2013-12-02 07:55:00,48.9,48.0,30.21,North,359,8.0,11.0,97,0.01,,,0.01,meteohub,2013-12-02 15:55:00,
2013-12-02 08:00:00,48.9,48.0,30.21,SSE,165,3.0,11.0,97,0.01,,,0.01,meteohub,2013-12-02 16:00:00,
2013-12-02 08:05:00,48.9,48.0,30.21,SSE,166,6.0,12.0,97,0.01,,,0.01,meteohub,2013-12-02 16:05:00,
2013-12-02 08:10:00,48.9,48.0,30.21,SSE,158,7.0,12.0,97,0.01,,,0.01,meteohub,2013-12-02 16:10:00,
2013-12-02 08:15:00,48.7,47.8,30.21,South,170,4.0,12.0,97,0.00,,,0.01,meteohub,2013-12-02 16:15:00,
2013-12-02 08:20:00,48.7,47.8,30.22,North,359,6.0,11.0,97,0.00,,,0.01,meteohub,2013-12-02 16:20:00,
2013-12-02 08:25:00,48.7,47.8,30.21,South,172,5.0,10.0,97,0.00,,,0.01,meteohub,2013-12-02 16:25:00,
2013-12-02 08:30:00,48.6,47.7,30.21,South,174,4.0,9.0,97,0.00,,,0.01,meteohub,2013-12-02 16:30:00,
2013-12-02 08:35:00,48.6,48.0,30.21,South,181,5.0,9.0,98,0.00,,,0.01,meteohub,2013-12-02 16:35:00,
2013-12-02 08:40:00,48.7,48.2,30.21,SSW,206,4.0,9.0,98,0.00,,,0.01,meteohub,2013-12-02 16:40:00,
2013-12-02 08:45:00,48.7,47.8,30.21,SSW,208,5.0,9.0,97,0.00,,,0.01,meteohub,2013-12-02 16:45:00,
2013-12-02 08:50:00,48.7,47.8,30.20,SSW,201,5.0,9.0,97,0.00,,,0.01,meteohub,2013-12-02 16:50:00,
2013-12-02 08:56:00,48.7,48.2,30.21,SSW,197,2.0,11.0,98,0.00,,,0.01,meteohub,2013-12-02 16:56:00,
2013-12-02 09:01:00,48.7,48.2,30.22,South,187,5.0,12.0,98,0.00,,,0.01,meteohub,2013-12-02 17:01:00,
2013-12-02 09:06:00,48.9,48.4,30.22,North,359,7.0,12.0,98,0.00,,,0.01,meteohub,2013-12-02 17:06:00,
2013-12-02 09:11:00,48.9,48.4,30.22,South,172,6.0,12.0,98,0.00,,,0.01,meteohub,2013-12-02 17:11:00,
2013-12-02 09:16:00,48.9,48.4,30.22,South,170,4.0,9.0,98,0.00,,,0.01,meteohub,2013-12-02 17:16:00,
2013-12-02 09:21:00,49.1,48.6,30.22,North,359,2.0,9.0,98,0.00,,,0.01,meteohub,2013-12-02 17:21:00,
2013-12-02 09:26:00,49.5,48.9,30.22,South,172,5.0,9.0,98,0.00,,,0.01,meteohub,2013-12-02 17:26:00,
2013-12-02 09:31:00,49.6,49.1,30.22,SSW,193,6.0,9.0,98,0.00,,,0.01,meteohub,2013-12-02 17:31:00,
2013-12-02 09:36:00,49.8,49.3,30.21,South,174,5.0,9.0,98,0.00,,,0.01,meteohub,2013-12-02 17:36:00,
2013-12-02 09:41:00,50.0,49.5,30.21,SSE,164,9.0,9.0,98,0.00,,,0.01,meteohub,2013-12-02 17:41:00,
2013-12-02 09:46:00,49.8,49.3,30.21,SSE,160,8.0,11.0,98,0.00,,,0.01,meteohub,2013-12-02 17:46:00,
2013-12-02 09:51:00,49.6,49.1,30.21,SSE,160,8.0,11.0,98,0.00,,,0.01,meteohub,2013-12-02 17:51:00,
2013-12-02 09:56:00,49.8,49.3,30.20,SE,135,8.0,11.0,98,0.00,,,0.01,meteohub,2013-12-02 17:56:00,
2013-12-02 10:01:00,49.8,49.3,30.20,SSE,157,8.0,12.0,98,0.00,,,0.01,meteohub,2013-12-02 18:01:00,
2013-12-02 10:06:00,49.6,49.1,30.20,SSE,166,12.0,13.0,98,0.00,,,0.01,meteohub,2013-12-02 18:06:00,
2013-12-02 10:11:00,49.6,49.1,30.20,South,176,8.0,13.0,98,0.00,,,0.01,meteohub,2013-12-02 18:11:00,
2013-12-02 10:16:00,49.6,49.1,30.20,South,179,11.0,14.0,98,0.00,,,0.01,meteohub,2013-12-02 18:16:00,
2013-12-02 10:21:00,49.8,49.3,30.20,SSE,168,10.0,14.0,98,0.00,,,0.01,meteohub,2013-12-02 18:21:00,
2013-12-02 10:26:00,49.8,49.3,30.20,SSW,193,12.0,14.0,98,0.00,,,0.01,meteohub,2013-12-02 18:26:00,
2013-12-02 10:31:00,49.8,49.3,30.20,SSE,161,9.0,13.0,98,0.00,,,0.01,meteohub,2013-12-02 18:31:00,
2013-12-02 10:36:00,50.0,49.5,30.20,South,175,6.0,13.0,98,0.00,,,0.01,meteohub,2013-12-02 18:36:00,
2013-12-02 10:41:00,50.4,49.8,30.20,SSE,149,6.0,13.0,98,0.00,,,0.01,meteohub,2013-12-02 18:41:00,
2013-12-02 10:46:00,50.7,50.2,30.19,South,174,7.0,11.0,98,0.00,,,0.01,meteohub,2013-12-02 18:46:00,
2013-12-02 10:51:00,51.1,50.5,30.19,South,174,9.0,13.0,98,0.00,,,0.01,meteohub,2013-12-02 18:51:00,
2013-12-02 10:56:00,51.1,50.5,30.20,SSE,156,8.0,14.0,98,0.00,,,0.01,meteohub,2013-12-02 18:56:00,
2013-12-02 11:02:00,51.3,50.7,30.20,SSE,164,5.0,16.0,98,0.00,,,0.01,meteohub,2013-12-02 19:02:00,
2013-12-02 11:07:00,51.6,51.1,30.20,SSE,168,8.0,16.0,98,0.00,,,0.01,meteohub,2013-12-02 19:07:00,
2013-12-02 11:12:00,51.8,51.3,30.19,SSW,194,5.0,16.0,98,0.00,,,0.01,meteohub,2013-12-02 19:12:00,
2013-12-02 11:17:00,52.0,51.1,30.19,SSE,149,7.0,12.0,97,0.00,,,0.01,meteohub,2013-12-02 19:17:00,
2013-12-02 11:22:00,52.0,51.1,30.18,South,169,4.0,10.0,97,0.00,,,0.01,meteohub,2013-12-02 19:22:00,
2013-12-02 11:27:00,52.2,51.3,30.18,SSE,167,6.0,10.0,97,0.00,,,0.01,meteohub,2013-12-02 19:27:00,
2013-12-02 11:32:00,52.3,51.3,30.17,South,179,4.0,10.0,96,0.00,,,0.01,meteohub,2013-12-02 19:32:00,
2013-12-02 11:37:00,52.5,51.4,30.17,SSE,164,5.0,10.0,96,0.00,,,0.01,meteohub,2013-12-02 19:37:00,
2013-12-02 11:42:00,52.9,51.8,30.16,South,177,5.0,10.0,96,0.00,,,0.01,meteohub,2013-12-02 19:42:00,
2013-12-02 11:47:00,53.2,51.8,30.16,South,170,5.0,9.0,95,0.00,,,0.01,meteohub,2013-12-02 19:47:00,
2013-12-02 11:52:00,53.8,52.3,30.15,South,170,4.0,9.0,95,0.00,,,0.01,meteohub,2013-12-02 19:52:00,
2013-12-02 11:57:00,54.1,52.5,30.15,South,184,2.0,10.0,94,0.00,,,0.01,meteohub,2013-12-02 19:57:00,
2013-12-02 12:02:00,54.9,53.2,30.15,SSE,161,6.0,10.0,94,0.00,,,0.01,meteohub,2013-12-02 20:02:00,
2013-12-02 12:07:00,55.0,52.7,30.15,SSE,154,3.0,10.0,92,0.00,,,0.01,meteohub,2013-12-02 20:07:00,
2013-12-02 12:12:00,55.2,52.7,30.15,SSE,155,6.0,8.0,91,0.00,,,0.01,meteohub,2013-12-02 20:12:00,
2013-12-02 12:18:00,55.4,52.5,30.14,SSE,168,5.0,8.0,90,0.00,,,0.01,meteohub,2013-12-02 20:18:00,
2013-12-02 12:23:00,55.8,52.3,30.14,South,171,5.0,8.0,88,0.00,,,0.01,meteohub,2013-12-02 20:23:00,
2013-12-02 12:28:00,56.1,52.7,30.13,South,172,7.0,10.0,88,0.00,,,0.01,meteohub,2013-12-02 20:28:00,
2013-12-02 12:33:00,56.1,52.0,30.13,South,174,4.0,10.0,86,0.00,,,0.01,meteohub,2013-12-02 20:33:00,
2013-12-02 12:38:00,55.9,51.8,30.13,SE,139,8.0,9.0,86,0.00,,,0.01,meteohub,2013-12-02 20:38:00,
2013-12-02 12:43:00,56.1,52.0,30.13,SSE,162,5.0,10.0,86,0.00,,,0.01,meteohub,2013-12-02 20:43:00,
2013-12-02 12:48:00,56.7,52.2,30.12,South,181,7.0,10.0,85,0.00,,,0.01,meteohub,2013-12-02 20:48:00,
2013-12-02 12:53:00,56.8,52.0,30.12,SSE,158,7.0,10.0,84,0.00,,,0.01,meteohub,2013-12-02 20:53:00,
2013-12-02 12:58:00,57.2,52.2,30.12,SSE,162,7.0,12.0,83,0.00,,,0.01,meteohub,2013-12-02 20:58:00,
2013-12-02 13:03:00,57.6,51.8,30.11,SSE,163,9.0,12.0,81,0.00,,,0.01,meteohub,2013-12-02 21:03:00,
2013-12-02 13:08:00,57.6,51.8,30.11,SSE,164,7.0,14.0,81,0.00,,,0.01,meteohub,2013-12-02 21:08:00,
2013-12-02 13:13:00,57.6,51.8,30.11,SSE,168,13.0,14.0,81,0.00,,,0.01,meteohub,2013-12-02 21:13:00,
2013-12-02 13:18:00,57.7,52.0,30.10,SSE,160,13.0,15.0,81,0.00,,,0.01,meteohub,2013-12-02 21:18:00,
2013-12-02 13:23:00,57.7,52.0,30.10,SSW,194,7.0,15.0,81,0.00,,,0.01,meteohub,2013-12-02 21:23:00,
2013-12-02 13:28:00,57.9,52.2,30.10,SSE,154,8.0,15.0,81,0.00,,,0.01,meteohub,2013-12-02 21:28:00,
2013-12-02 13:33:00,57.9,51.8,30.09,SSE,164,9.0,14.0,80,0.00,,,0.01,meteohub,2013-12-02 21:33:00,
2013-12-02 13:38:00,58.1,52.0,30.09,South,170,9.0,13.0,80,0.00,,,0.01,meteohub,2013-12-02 21:38:00,
2013-12-02 13:43:00,57.7,51.3,30.09,SSE,168,5.0,13.0,79,0.00,,,0.01,meteohub,2013-12-02 21:43:00,
2013-12-02 13:48:00,57.9,51.8,30.09,South,179,12.0,13.0,80,0.00,,,0.01,meteohub,2013-12-02 21:48:00,
2013-12-02 13:53:00,58.3,51.8,30.09,SSE,157,10.0,14.0,79,0.00,,,0.01,meteohub,2013-12-02 21:53:00,
2013-12-02 13:58:00,58.3,51.8,30.09,SSW,195,6.0,14.0,79,0.00,,,0.01,meteohub,2013-12-02 21:58:00,
2013-12-02 14:03:00,58.6,52.2,30.08,South,177,9.0,13.0,79,0.00,,,0.01,meteohub,2013-12-02 22:03:00,
2013-12-02 14:08:00,58.6,52.2,30.08,SSE,168,6.0,13.0,79,0.00,,,0.01,meteohub,2013-12-02 22:08:00,
2013-12-02 14:13:00,58.5,51.6,30.08,SSE,162,3.0,13.0,78,0.00,,,0.01,meteohub,2013-12-02 22:13:00,
2013-12-02 14:18:00,58.5,52.0,30.08,South,184,5.0,13.0,79,0.00,,,0.01,meteohub,2013-12-02 22:18:00,
2013-12-02 14:23:00,58.3,51.8,30.08,SSE,166,9.0,13.0,79,0.00,,,0.01,meteohub,2013-12-02 22:23:00,
2013-12-02 14:28:00,57.9,51.8,30.08,South,174,5.0,11.0,80,0.00,,,0.01,meteohub,2013-12-02 22:28:00,
2013-12-02 14:34:00,58.1,52.0,30.08,SSE,168,4.0,11.0,80,0.00,,,0.01,meteohub,2013-12-02 22:34:00,
2013-12-02 14:39:00,58.3,51.8,30.08,SSE,164,4.0,11.0,79,0.00,,,0.01,meteohub,2013-12-02 22:39:00,
2013-12-02 14:44:00,58.5,52.0,30.08,South,174,7.0,11.0,79,0.00,,,0.01,meteohub,2013-12-02 22:44:00,
2013-12-02 14:49:00,58.6,51.8,30.08,SSE,159,5.0,10.0,78,0.00,,,0.01,meteohub,2013-12-02 22:49:00,
2013-12-02 14:54:00,58.6,51.8,30.08,SE,141,6.0,11.0,78,0.00,,,0.01,meteohub,2013-12-02 22:54:00,
2013-12-02 14:59:00,58.8,51.6,30.08,SSE,149,3.0,11.0,77,0.00,,,0.01,meteohub,2013-12-02 22:59:00,
2013-12-02 15:04:00,59.2,52.0,30.08,SSE,165,4.0,10.0,77,0.00,,,0.01,meteohub,2013-12-02 23:04:00,
2013-12-02 15:09:00,59.4,51.8,30.08,SSE,156,6.0,9.0,76,0.00,,,0.01,meteohub,2013-12-02 23:09:00,
2013-12-02 15:14:00,59.7,51.8,30.08,SSE,157,4.0,8.0,75,0.00,,,0.01,meteohub,2013-12-02 23:14:00,
2013-12-02 15:19:00,59.9,52.0,30.08,SSE,161,4.0,7.0,75,0.00,,,0.01,meteohub,2013-12-02 23:19:00,
2013-12-02 15:24:00,60.1,51.8,30.08,South,191,6.0,7.0,74,0.00,,,0.01,meteohub,2013-12-02 23:24:00,
2013-12-02 15:29:00,59.9,51.6,30.08,South,191,3.0,8.0,74,0.00,,,0.01,meteohub,2013-12-02 23:29:00,
2013-12-02 15:34:00,59.9,51.6,30.08,SW,230,4.0,8.0,74,0.00,,,0.01,meteohub,2013-12-02 23:34:00,
2013-12-02 15:39:00,59.5,51.3,30.08,West,260,4.0,10.0,74,0.00,,,0.01,meteohub,2013-12-02 23:39:00,
2013-12-02 15:44:00,59.7,51.1,30.08,West,275,9.0,10.0,73,0.00,,,0.01,meteohub,2013-12-02 23:44:00,
2013-12-02 15:49:00,59.7,51.1,30.08,West,268,7.0,15.0,73,0.00,,,0.01,meteohub,2013-12-02 23:49:00,
2013-12-02 15:54:00,59.7,51.1,30.08,West,261,4.0,15.0,73,0.00,,,0.01,meteohub,2013-12-02 23:54:00,
2013-12-02 15:59:00,60.1,51.4,30.08,WSW,237,0.0,15.0,73,0.00,,,0.01,meteohub,2013-12-02 23:59:00,
2013-12-02 16:04:00,60.1,51.4,30.08,SSW,208,5.0,12.0,73,0.00,,,0.01,meteohub,2013-12-03 00:04:00,
2013-12-02 16:09:00,59.7,51.1,30.07,West,278,5.0,9.0,73,0.00,,,0.00,meteohub,2013-12-03 00:09:00,
2013-12-02 16:14:00,59.7,51.1,30.07,West,270,7.0,11.0,73,0.00,,,0.00,meteohub,2013-12-03 00:14:00,
2013-12-02 16:19:00,59.4,51.1,30.07,West,272,7.0,11.0,74,0.00,,,0.00,meteohub,2013-12-03 00:19:00,
2013-12-02 16:24:00,58.8,50.9,30.08,WSW,253,8.0,11.0,75,0.00,,,0.00,meteohub,2013-12-03 00:24:00,
2013-12-02 16:29:00,58.8,50.9,30.07,WSW,254,5.0,11.0,75,0.00,,,0.00,meteohub,2013-12-03 00:29:00,
2013-12-02 16:34:00,59.0,51.1,30.07,SW,235,6.0,11.0,75,0.00,,,0.00,meteohub,2013-12-03 00:34:00,
2013-12-02 16:39:00,59.2,51.3,30.08,WSW,243,8.0,11.0,75,0.00,,,0.00,meteohub,2013-12-03 00:39:00,
2013-12-02 16:44:00,58.6,51.4,30.08,SW,224,4.0,9.0,77,0.00,,,0.00,meteohub,2013-12-03 00:44:00,
2013-12-02 16:49:00,57.7,51.3,30.08,SW,228,4.0,10.0,79,0.00,,,0.00,meteohub,2013-12-03 00:49:00,
2013-12-02 16:54:00,57.4,51.3,30.08,SW,228,0.0,10.0,80,0.00,,,0.00,meteohub,2013-12-03 00:54:00,
2013-12-02 16:59:00,57.2,51.1,30.08,SW,228,1.0,9.0,80,0.00,,,0.00,meteohub,2013-12-03 00:59:00,
2013-12-02 17:04:00,57.2,51.4,30.07,SW,228,0.0,8.0,81,0.00,,,0.00,meteohub,2013-12-03 01:04:00,
2013-12-02 17:09:00,57.0,50.9,30.07,SW,228,2.0,6.0,80,0.00,,,0.00,meteohub,2013-12-03 01:09:00,
2013-12-02 17:14:00,57.0,50.9,30.07,SW,228,0.0,4.0,80,0.00,,,0.00,meteohub,2013-12-03 01:14:00,
2013-12-02 17:19:00,57.0,50.9,30.07,SW,228,2.0,4.0,80,0.00,,,0.00,meteohub,2013-12-03 01:19:00,
2013-12-02 17:24:00,56.8,50.7,30.06,SW,228,0.0,4.0,80,0.00,,,0.00,meteohub,2013-12-03 01:24:00,
2013-12-02 17:29:00,56.8,50.7,30.06,SW,228,0.0,4.0,80,0.00,,,0.00,meteohub,2013-12-03 01:29:00,
2013-12-02 17:34:00,57.0,50.9,30.06,SW,229,0.0,2.0,80,0.00,,,0.00,meteohub,2013-12-03 01:34:00,
2013-12-02 17:40:00,56.8,50.7,30.06,SW,229,0.0,7.0,80,0.00,,,0.00,meteohub,2013-12-03 01:40:00,
2013-12-02 17:45:00,56.8,50.7,30.06,West,274,6.0,7.0,80,0.00,,,0.00,meteohub,2013-12-03 01:45:00,
2013-12-02 17:50:00,56.8,51.1,30.06,West,270,7.0,13.0,81,0.00,,,0.00,meteohub,2013-12-03 01:50:00,
2013-12-02 17:55:00,56.7,50.9,30.06,WNW,288,8.0,13.0,81,0.00,,,0.00,meteohub,2013-12-03 01:55:00,
2013-12-02 18:00:00,56.7,50.9,30.06,WNW,295,6.0,13.0,81,0.00,,,0.00,meteohub,2013-12-03 02:00:00,
2013-12-02 18:05:00,56.7,50.9,30.06,WNW,303,9.0,13.0,81,0.00,,,0.00,meteohub,2013-12-03 02:05:00,
2013-12-02 18:10:00,56.7,50.9,30.06,West,281,9.0,13.0,81,0.00,,,0.00,meteohub,2013-12-03 02:10:00,
2013-12-02 18:15:00,56.5,51.1,30.06,WNW,291,5.0,13.0,82,0.00,,,0.00,meteohub,2013-12-03 02:15:00,
2013-12-02 18:20:00,56.3,50.9,30.06,WNW,283,7.0,11.0,82,0.00,,,0.00,meteohub,2013-12-03 02:20:00,
2013-12-02 18:25:00,56.1,50.7,30.06,West,270,6.0,12.0,82,0.00,,,0.00,meteohub,2013-12-03 02:25:00,
2013-12-02 18:30:00,55.9,50.9,30.06,West,274,7.0,16.0,83,0.00,,,0.00,meteohub,2013-12-03 02:30:00,
2013-12-02 18:35:00,55.8,50.7,30.05,West,275,5.0,16.0,83,0.00,,,0.00,meteohub,2013-12-03 02:35:00,
2013-12-02 18:40:00,55.8,50.7,30.06,West,279,10.0,16.0,83,0.00,,,0.00,meteohub,2013-12-03 02:40:00,
2013-12-02 18:45:00,55.8,50.7,30.06,WNW,287,9.0,14.0,83,0.00,,,0.00,meteohub,2013-12-03 02:45:00,
2013-12-02 18:50:00,55.8,50.7,30.06,WNW,283,12.0,14.0,83,0.00,,,0.00,meteohub,2013-12-03 02:50:00,
2013-12-02 18:55:00,55.8,51.1,30.06,West,270,10.0,18.0,84,0.00,,,0.00,meteohub,2013-12-03 02:55:00,
2013-12-02 19:00:00,55.8,51.1,30.07,WNW,285,11.0,18.0,84,0.00,,,0.00,meteohub,2013-12-03 03:00:00,
2013-12-02 19:05:00,55.6,51.1,30.07,West,274,15.0,18.0,85,0.00,,,0.00,meteohub,2013-12-03 03:05:00,
2013-12-02 19:10:00,55.2,50.7,30.07,WNW,295,13.0,19.0,85,0.00,,,0.00,meteohub,2013-12-03 03:10:00,
2013-12-02 19:15:00,55.0,50.9,30.07,WNW,284,9.0,19.0,86,0.00,,,0.00,meteohub,2013-12-03 03:15:00,
2013-12-02 19:20:00,55.0,50.9,30.07,WNW,288,13.0,19.0,86,0.00,,,0.00,meteohub,2013-12-03 03:20:00,
2013-12-02 19:25:00,54.9,50.7,30.07,WNW,284,12.0,18.0,86,0.00,,,0.00,meteohub,2013-12-03 03:25:00,
2013-12-02 19:30:00,54.9,51.1,30.07,West,280,10.0,18.0,87,0.00,,,0.00,meteohub,2013-12-03 03:30:00,
2013-12-02 19:35:00,54.9,51.1,30.07,WNW,287,5.0,16.0,87,0.00,,,0.00,meteohub,2013-12-03 03:35:00,
2013-12-02 19:40:00,54.9,51.1,30.08,WNW,302,6.0,14.0,87,0.00,,,0.00,meteohub,2013-12-03 03:40:00,
2013-12-02 19:45:00,54.9,51.1,30.08,WNW,291,5.0,14.0,87,0.00,,,0.00,meteohub,2013-12-03 03:45:00,
2013-12-02 19:50:00,54.9,51.1,30.07,WNW,284,2.0,11.0,87,0.00,,,0.00,meteohub,2013-12-03 03:50:00,
2013-12-02 19:55:00,54.9,51.1,30.07,WNW,283,2.0,10.0,87,0.00,,,0.00,meteohub,2013-12-03 03:55:00,
2013-12-02 20:00:00,54.9,51.1,30.07,West,274,6.0,9.0,87,0.00,,,0.00,meteohub,2013-12-03 04:00:00,
2013-12-02 20:05:00,54.9,51.1,30.07,WNW,295,11.0,11.0,87,0.00,,,0.00,meteohub,2013-12-03 04:05:00,
2013-12-02 20:10:00,54.9,51.1,30.07,WNW,289,2.0,11.0,87,0.00,,,0.00,meteohub,2013-12-03 04:10:00,
2013-12-02 20:15:00,54.7,51.3,30.07,WNW,282,3.0,11.0,88,0.00,,,0.00,meteohub,2013-12-03 04:15:00,
2013-12-02 20:21:00,54.9,51.4,30.07,WNW,295,3.0,11.0,88,0.00,,,0.00,meteohub,2013-12-03 04:21:00,
2013-12-02 20:26:00,54.9,51.4,30.07,West,281,0.0,8.0,88,0.00,,,0.00,meteohub,2013-12-03 04:26:00,
2013-12-02 20:31:00,54.7,51.3,30.06,West,280,0.0,8.0,88,0.00,,,0.00,meteohub,2013-12-03 04:31:00,
2013-12-02 20:36:00,54.7,51.4,30.06,West,275,0.0,8.0,89,0.00,,,0.00,meteohub,2013-12-03 04:36:00,
2013-12-02 20:41:00,54.7,51.4,30.06,West,275,5.0,8.0,89,0.00,,,0.00,meteohub,2013-12-03 04:41:00,
2013-12-02 20:46:00,54.7,51.4,30.06,West,274,0.0,8.0,89,0.00,,,0.00,meteohub,2013-12-03 04:46:00,
2013-12-02 20:51:00,54.7,51.4,30.06,West,274,2.0,5.0,89,0.00,,,0.00,meteohub,2013-12-03 04:51:00,
2013-12-02 20:56:00,54.7,51.4,30.06,West,275,4.0,5.0,89,0.00,,,0.00,meteohub,2013-12-03 04:56:00,
2013-12-02 21:01:00,54.9,51.6,30.06,West,275,4.0,5.0,89,0.00,,,0.00,meteohub,2013-12-03 05:01:00,
2013-12-02 21:02:00,54.9,51.6,30.06,West,274,0.0,5.0,89,0.00,,,0.00,meteohub,2013-12-03 05:02:00,
2013-12-02 21:03:00,54.9,51.6,30.06,West,274,4.0,5.0,89,0.00,,,0.00,meteohub,2013-12-03 05:03:00,
2013-12-02 21:04:00,54.9,51.6,30.06,West,274,1.0,5.0,89,0.00,,,0.00,meteohub,2013-12-03 05:04:00,
2013-12-02 21:05:00,54.9,51.6,30.06,West,274,1.0,5.0,89,0.00,,,0.00,meteohub,2013-12-03 05:05:00,
2013-12-02 21:07:00,55.0,51.8,30.05,West,264,4.0,5.0,89,0.00,,,0.00,meteohub,2013-12-03 05:07:00,
2013-12-02 21:12:00,55.2,52.0,30.06,West,280,7.0,8.0,89,0.00,,,0.00,meteohub,2013-12-03 05:12:00,
2013-12-02 21:17:00,55.6,52.2,30.05,West,279,8.0,9.0,88,0.00,,,0.00,meteohub,2013-12-03 05:17:00,
2013-12-02 21:22:00,55.9,52.5,30.05,West,278,9.0,14.0,88,0.00,,,0.00,meteohub,2013-12-03 05:22:00,
2013-12-02 21:27:00,56.1,52.3,30.05,WNW,285,9.0,14.0,87,0.00,,,0.00,meteohub,2013-12-03 05:27:00,
2013-12-02 21:33:00,56.1,52.3,30.05,West,273,9.0,14.0,87,0.00,,,0.00,meteohub,2013-12-03 05:33:00,
2013-12-02 21:38:00,56.1,52.3,30.05,WNW,285,4.0,13.0,87,0.00,,,0.00,meteohub,2013-12-03 05:38:00,
2013-12-02 21:43:00,56.1,52.3,30.05,West,280,7.0,12.0,87,0.00,,,0.00,meteohub,2013-12-03 05:43:00,
2013-12-02 21:48:00,55.9,52.2,30.04,WNW,285,7.0,12.0,87,0.00,,,0.00,meteohub,2013-12-03 05:48:00,
2013-12-02 21:53:00,55.9,52.5,30.04,WNW,287,7.0,12.0,88,0.00,,,0.00,meteohub,2013-12-03 05:53:00,
2013-12-02 21:58:00,55.9,52.5,30.04,West,274,4.0,10.0,88,0.00,,,0.00,meteohub,2013-12-03 05:58:00,
2013-12-02 22:03:00,56.1,52.7,30.04,West,274,7.0,9.0,88,0.00,,,0.00,meteohub,2013-12-03 06:03:00,
2013-12-02 22:08:00,56.1,52.7,30.04,West,270,6.0,9.0,88,0.00,,,0.00,meteohub,2013-12-03 06:08:00,
2013-12-02 22:13:00,56.1,52.7,30.04,West,264,4.0,9.0,88,0.00,,,0.00,meteohub,2013-12-03 06:13:00,
2013-12-02 22:18:00,56.3,52.5,30.04,West,270,8.0,9.0,87,0.00,,,0.00,meteohub,2013-12-03 06:18:00,
2013-12-02 22:23:00,56.5,52.7,30.04,West,264,9.0,14.0,87,0.00,,,0.00,meteohub,2013-12-03 06:23:00,
2013-12-02 22:28:00,56.5,52.9,30.04,West,264,7.0,14.0,88,0.00,,,0.00,meteohub,2013-12-03 06:28:00,
2013-12-02 22:33:00,56.7,53.1,30.03,West,262,7.0,14.0,88,0.00,,,0.00,meteohub,2013-12-03 06:33:00,
2013-12-02 22:38:00,56.7,53.1,30.03,WSW,249,4.0,14.0,88,0.00,,,0.00,meteohub,2013-12-03 06:38:00,
2013-12-02 22:43:00,56.5,52.9,30.03,WSW,248,4.0,12.0,88,0.00,,,0.00,meteohub,2013-12-03 06:43:00,
2013-12-02 22:48:00,56.5,52.9,30.03,WSW,246,7.0,12.0,88,0.00,,,0.00,meteohub,2013-12-03 06:48:00,
2013-12-02 22:53:00,56.5,52.9,30.03,WSW,252,7.0,8.0,88,0.00,,,0.00,meteohub,2013-12-03 06:53:00,
2013-12-02 22:58:00,56.7,53.1,30.03,WSW,258,12.0,12.0,88,0.00,,,0.00,meteohub,2013-12-03 06:58:00,
2013-12-02 23:03:00,56.8,53.6,30.03,West,272,9.0,13.0,89,0.00,,,0.00,meteohub,2013-12-03 07:03:00,
2013-12-02 23:08:00,56.8,53.2,30.02,West,259,4.0,13.0,88,0.00,,,0.00,meteohub,2013-12-03 07:08:00,
2013-12-02 23:13:00,56.8,53.2,30.02,WSW,258,4.0,13.0,88,0.00,,,0.00,meteohub,2013-12-03 07:13:00,
2013-12-02 23:18:00,56.8,53.6,30.02,West,273,5.0,11.0,89,0.00,,,0.00,meteohub,2013-12-03 07:18:00,
2013-12-02 23:23:00,56.8,53.2,30.02,West,272,2.0,11.0,88,0.00,,,0.00,meteohub,2013-12-03 07:23:00,
2013-12-02 23:28:00,56.8,53.6,30.02,West,261,0.0,11.0,89,0.00,,,0.00,meteohub,2013-12-03 07:28:00,
2013-12-02 23:33:00,56.7,53.4,30.02,West,261,0.0,11.0,89,0.00,,,0.00,meteohub,2013-12-03 07:33:00,
2013-12-02 23:38:00,56.7,53.4,30.01,WSW,245,4.0,6.0,89,0.00,,,0.00,meteohub,2013-12-03 07:38:00,
2013-12-02 23:43:00,56.7,53.4,30.01,WSW,245,3.0,8.0,89,0.00,,,0.00,meteohub,2013-12-03 07:43:00,
2013-12-02 23:48:00,56.7,53.4,30.01,WSW,246,0.0,8.0,89,0.00,,,0.00,meteohub,2013-12-03 07:48:00,
2013-12-02 23:53:00,56.7,53.4,30.01,WSW,244,1.0,8.0,89,0.00,,,0.00,meteohub,2013-12-03 07:53:00,
2013-12-02 23:58:00,56.7,53.8,30.01,WSW,240,2.0,4.0,90,0.00,,,0.00,meteohub,2013-12-03 07:58:00,